| time (UTC) | temp C | wind direction | speed KPH | gust KPH | rain 1hr cm | rain 24hr cm | rain mn cm | humidity % | barometer mb |
| 20260510063925 | 11 | 214 | 3.2 | 3.2 | 0.00 | 0.00 | 0.00 | 75 | 1013.3 |
| 20260510063420 | 11 | 218 | 3.2 | 3.2 | 0.00 | 0.00 | 0.00 | 74 | 1012.9 |
| 20260510062919 | 11 | 218 | 1.6 | 1.6 | 0.00 | 0.00 | 0.00 | 74 | 1013.3 |
| 20260510062413 | 11 | 222 | 0.0 | 0.0 | 0.00 | 0.00 | 0.00 | 74 | 1012.9 |
| 20260510061909 | 11 | 221 | 0.0 | 0.0 | 0.00 | 0.00 | 0.00 | 74 | 1013.3 |
| 20260510061406 | 11 | 223 | 0.0 | 0.0 | 0.00 | 0.00 | 0.00 | 73 | 1012.9 |
| 20260510060902 | 11 | 215 | 0.0 | 1.6 | 0.00 | 0.00 | 0.00 | 72 | 1013.3 |
| 20260510060359 | 12 | 219 | 1.6 | 1.6 | 0.00 | 0.00 | 0.00 | 71 | 1013.3 |
| 20260510055855 | 12 | 203 | 3.2 | 3.2 | 0.00 | 0.00 | 0.00 | 70 | 1013.3 |
| 20260510055356 | 13 | 197 | 1.6 | 1.6 | 0.00 | 0.00 | 0.00 | 67 | 1013.3 |
| 20260510054854 | 13 | 224 | 1.6 | 3.2 | 0.00 | 0.00 | 0.00 | 66 | 1013.3 |
| 20260510054350 | 13 | 228 | 0.0 | 1.6 | 0.00 | 0.00 | 0.00 | 68 | 1012.9 |
| 20260510053845 | 13 | 220 | 1.6 | 1.6 | 0.00 | 0.00 | 0.00 | 67 | 1012.9 |
| 20260510053341 | 13 | 224 | 0.0 | 1.6 | 0.00 | 0.00 | 0.00 | 66 | 1012.9 |
| 20260510052837 | 13 | 216 | 0.0 | 0.0 | 0.00 | 0.00 | 0.00 | 64 | 1013.3 |
| 20260510052333 | 14 | 223 | 1.6 | 3.2 | 0.00 | 0.00 | 0.00 | 63 | 1012.9 |
| 20260510051830 | 14 | 219 | 0.0 | 1.6 | 0.00 | 0.00 | 0.00 | 62 | 1012.9 |
| 20260510051326 | 15 | 193 | 3.2 | 4.8 | 0.00 | 0.00 | 0.00 | 62 | 1013.3 |
| 20260510050823 | 15 | 213 | 1.6 | 1.6 | 0.00 | 0.00 | 0.00 | 61 | 1013.3 |
| 20260510050320 | 15 | 214 | 0.0 | 1.6 | 0.00 | 0.00 | 0.00 | 62 | 1013.3 |
| 20260510045817 | 15 | 160 | 1.6 | 3.2 | 0.00 | 0.00 | 0.00 | 61 | 1013.3 |
| 20260510045314 | 14 | 210 | 3.2 | 4.8 | 0.00 | 0.00 | 0.00 | 62 | 1013.3 |
| 20260510044811 | 13 | 236 | 0.0 | 1.6 | 0.00 | 0.00 | 0.00 | 63 | 1012.9 |
| 20260510044308 | 12 | 222 | 3.2 | 3.2 | 0.00 | 0.00 | 0.00 | 65 | 1013.3 |
| 20260510043804 | 11 | 226 | 1.6 | 1.6 | 0.00 | 0.00 | 0.00 | 69 | 1013.3 |
| 20260510043300 | 10 | 235 | 3.2 | 4.8 | 0.00 | 0.00 | 0.00 | 72 | 1013.3 |
| 20260510042758 | 11 | 238 | 1.6 | 1.6 | 0.00 | 0.00 | 0.00 | 71 | 1013.7 |
| 20260510042253 | 11 | 227 | 0.0 | 0.0 | 0.00 | 0.00 | 0.00 | 70 | 1013.3 |
| 20260510041750 | 12 | 223 | 0.0 | 0.0 | 0.00 | 0.00 | 0.00 | 68 | 1013.7 |
| 20260510041247 | 12 | 217 | 0.0 | 0.0 | 0.00 | 0.00 | 0.00 | 67 | 1013.7 |
| 20260510040745 | 13 | 225 | 0.0 | 0.0 | 0.00 | 0.00 | 0.00 | 65 | 1013.3 |
| 20260510040236 | 14 | 223 | 0.0 | 0.0 | 0.00 | 0.00 | 0.00 | 62 | 1013.3 |
| 20260510035730 | 15 | 222 | 0.0 | 1.6 | 0.00 | 0.00 | 0.00 | 59 | 1013.3 |
| 20260510035227 | 15 | 218 | 0.0 | 0.0 | 0.00 | 0.00 | 0.00 | 58 | 1013.3 |
| 20260510034722 | 15 | 231 | 1.6 | 3.2 | 0.00 | 0.00 | 0.00 | 57 | 1013.3 |
| 20260510034221 | 15 | 221 | 0.0 | 0.0 | 0.00 | 0.00 | 0.00 | 57 | 1013.3 |
| 20260510033716 | 15 | 223 | 0.0 | 0.0 | 0.00 | 0.00 | 0.00 | 57 | 1013.3 |
| 20260510033215 | 15 | 222 | 0.0 | 0.0 | 0.00 | 0.00 | 0.00 | 56 | 1013.7 |
| 20260510032711 | 16 | 222 | 1.6 | 1.6 | 0.00 | 0.00 | 0.00 | 55 | 1013.7 |
| 20260510032207 | 16 | 227 | 1.6 | 1.6 | 0.00 | 0.00 | 0.00 | 56 | 1013.7 |
| 20260510031702 | 16 | 222 | 3.2 | 3.2 | 0.00 | 0.00 | 0.00 | 55 | 1013.7 |
| 20260510031159 | 16 | 208 | 3.2 | 3.2 | 0.00 | 0.00 | 0.00 | 54 | 1013.3 |
| 20260510030658 | 16 | 212 | 4.8 | 8.0 | 0.00 | 0.00 | 0.00 | 54 | 1013.3 |
| 20260510030156 | 16 | 242 | 4.8 | 8.0 | 0.00 | 0.00 | 0.00 | 54 | 1013.3 |
| 20260510025653 | 16 | 227 | 3.2 | 3.2 | 0.00 | 0.00 | 0.00 | 54 | 1013.3 |
| 20260510025150 | 16 | 223 | 0.0 | 1.6 | 0.00 | 0.00 | 0.00 | 55 | 1013.3 |
| 20260510024647 | 16 | 214 | 0.0 | 0.0 | 0.00 | 0.00 | 0.00 | 54 | 1012.9 |
| 20260510024143 | 16 | 195 | 4.8 | 8.0 | 0.00 | 0.00 | 0.00 | 54 | 1012.9 |
| 20260510023639 | 16 | 195 | 0.0 | 0.0 | 0.00 | 0.00 | 0.00 | 54 | 1012.9 |
| 20260510023137 | 16 | 219 | 3.2 | 3.2 | 0.00 | 0.00 | 0.00 | 54 | 1012.5 |
| 20260510022636 | 16 | 220 | 0.0 | 0.0 | 0.00 | 0.00 | 0.00 | 53 | 1012.9 |
| 20260510022132 | 16 | 215 | 3.2 | 4.8 | 0.00 | 0.00 | 0.00 | 52 | 1012.9 |
| 20260510021622 | 16 | 226 | 3.2 | 3.2 | 0.00 | 0.00 | 0.00 | 52 | 1012.5 |
| 20260510021120 | 16 | 236 | 1.6 | 1.6 | 0.00 | 0.00 | 0.00 | 53 | 1012.5 |
| 20260510020613 | 16 | 218 | 6.4 | 9.7 | 0.00 | 0.00 | 0.00 | 52 | 1012.5 |
| 20260510020109 | 16 | 223 | 0.0 | 0.0 | 0.00 | 0.00 | 0.00 | 52 | 1012.2 |
| 20260510015605 | 16 | 209 | 1.6 | 1.6 | 0.00 | 0.00 | 0.00 | 52 | 1012.2 |
| 20260510015102 | 16 | 224 | 1.6 | 1.6 | 0.00 | 0.00 | 0.00 | 51 | 1012.2 |
| 20260510014557 | 16 | 255 | 1.6 | 3.2 | 0.00 | 0.00 | 0.00 | 52 | 1012.2 |
| 20260510014055 | 16 | 226 | 4.8 | 8.0 | 0.00 | 0.00 | 0.00 | 53 | 1011.9 |
| 20260510013549 | 15 | 225 | 0.0 | 0.0 | 0.00 | 0.00 | 0.00 | 53 | 1012.2 |
| 20260510013045 | 15 | 227 | 1.6 | 1.6 | 0.00 | 0.00 | 0.00 | 55 | 1011.9 |
| 20260510012540 | 15 | 222 | 0.0 | 0.0 | 0.00 | 0.00 | 0.00 | 58 | 1011.9 |
| 20260510012037 | 16 | 228 | 0.0 | 1.6 | 0.00 | 0.00 | 0.00 | 57 | 1011.5 |
| 20260510011536 | 16 | 225 | 0.0 | 1.6 | 0.00 | 0.00 | 0.00 | 53 | 1011.5 |
| 20260510011032 | 16 | 229 | 1.6 | 1.6 | 0.00 | 0.00 | 0.00 | 53 | 1011.5 |
| 20260510010529 | 16 | 221 | 0.0 | 1.6 | 0.00 | 0.00 | 0.00 | 53 | 1011.5 |
| 20260510010026 | 16 | 217 | 0.0 | 0.0 | 0.00 | 0.00 | 0.00 | 54 | 1011.5 |
| 20260510005521 | 16 | 197 | 1.6 | 1.6 | 0.00 | 0.00 | 0.00 | 54 | 1011.1 |
| 20260510005019 | 16 | 209 | 1.6 | 3.2 | 0.00 | 0.00 | 0.00 | 56 | 1011.5 |
| 20260510004516 | 15 | 209 | 3.2 | 4.8 | 0.00 | 0.00 | 0.00 | 62 | 1011.5 |
| 20260510004014 | 15 | 230 | 0.0 | 1.6 | 0.00 | 0.00 | 0.00 | 64 | 1011.1 |
| 20260510003511 | 14 | 224 | 3.2 | 4.8 | 0.00 | 0.00 | 0.00 | 65 | 1011.1 |
| 20260510003006 | 14 | 225 | 0.0 | 1.6 | 0.00 | 0.00 | 0.00 | 71 | 1011.1 |
| 20260510002502 | 15 | 223 | 0.0 | 0.0 | 0.00 | 0.00 | 0.00 | 73 | 1011.1 |
| 20260510001959 | 15 | 222 | 0.0 | 0.0 | 0.00 | 0.00 | 0.00 | 72 | 1010.7 |
| 20260510001456 | 16 | 227 | 0.0 | 0.0 | 0.00 | 0.00 | 0.00 | 71 | 1011.1 |
| 20260510000954 | 16 | 220 | 0.0 | 0.0 | 0.00 | 0.00 | 0.00 | 67 | 1010.7 |
| 20260510000449 | 16 | 223 | 0.0 | 1.6 | 0.00 | 0.00 | 0.00 | 66 | 1010.4 |
| 20260509235946 | 17 | 240 | 1.6 | 1.6 | 0.00 | 0.00 | 0.00 | 65 | 1010.4 |
| 20260509235443 | 18 | 220 | 0.0 | 0.0 | 0.00 | 0.00 | 0.00 | 64 | 1010.7 |
| 20260509234940 | 18 | 220 | 0.0 | 1.6 | 0.00 | 0.00 | 0.00 | 61 | 1010.1 |
| 20260509234436 | 19 | 226 | 1.6 | 1.6 | 0.00 | 0.00 | 0.00 | 60 | 1010.4 |
| 20260509233934 | 20 | 217 | 1.6 | 1.6 | 0.00 | 0.00 | 0.00 | 59 | 1010.1 |
| 20260509233432 | 20 | 219 | 0.0 | 0.0 | 0.00 | 0.00 | 0.00 | 59 | 1010.4 |
| 20260509232927 | 19 | 220 | 0.0 | 0.0 | 0.00 | 0.00 | 0.00 | 59 | 1010.4 |
| 20260509232425 | 19 | 208 | 4.8 | 8.0 | 0.00 | 0.00 | 0.00 | 58 | 1010.4 |
| 20260509231921 | 20 | 221 | 1.6 | 1.6 | 0.00 | 0.00 | 0.00 | 57 | 1010.4 |
| 20260509231418 | 20 | 216 | 6.4 | 8.0 | 0.00 | 0.00 | 0.00 | 55 | 1010.4 |
| 20260509230917 | 20 | 213 | 4.8 | 4.8 | 0.00 | 0.00 | 0.00 | 55 | 1010.4 |
| 20260509230413 | 20 | 239 | 6.4 | 8.0 | 0.00 | 0.00 | 0.00 | 56 | 1010.1 |
| 20260509225909 | 20 | 220 | 4.8 | 4.8 | 0.00 | 0.00 | 0.00 | 55 | 1010.4 |
| 20260509225405 | 20 | 207 | 4.8 | 4.8 | 0.00 | 0.00 | 0.00 | 57 | 1010.4 |
| 20260509224901 | 20 | 192 | 4.8 | 8.0 | 0.00 | 0.00 | 0.00 | 58 | 1010.1 |
| 20260509224357 | 20 | 199 | 4.8 | 4.8 | 0.00 | 0.00 | 0.00 | 58 | 1010.4 |
| 20260509223854 | 20 | 217 | 4.8 | 8.0 | 0.00 | 0.00 | 0.00 | 58 | 1010.4 |
| 20260509223351 | 20 | 165 | 4.8 | 8.0 | 0.00 | 0.00 | 0.00 | 57 | 1010.4 |
| 20260509222849 | 20 | 220 | 3.2 | 3.2 | 0.00 | 0.00 | 0.00 | 58 | 1010.1 |
| 20260509222348 | 20 | 155 | 4.8 | 9.7 | 0.00 | 0.00 | 0.00 | 57 | 1010.4 |
| 20260509221844 | 20 | 213 | 1.6 | 3.2 | 0.00 | 0.00 | 0.00 | 56 | 1010.4 |
| 20260509221342 | 20 | 198 | 3.2 | 3.2 | 0.00 | 0.00 | 0.00 | 56 | 1010.1 |
| 20260509220842 | 20 | 214 | 4.8 | 4.8 | 0.00 | 0.00 | 0.00 | 58 | 1010.4 |
| 20260509220339 | 20 | 217 | 1.6 | 3.2 | 0.00 | 0.00 | 0.00 | 59 | 1010.4 |
| 20260509215834 | 20 | 221 | 3.2 | 4.8 | 0.00 | 0.00 | 0.00 | 57 | 1010.4 |
| 20260509215331 | 20 | 196 | 6.4 | 9.7 | 0.00 | 0.00 | 0.00 | 56 | 1010.1 |
| 20260509214828 | 20 | 219 | 3.2 | 3.2 | 0.00 | 0.00 | 0.00 | 56 | 1010.4 |
| 20260509214325 | 20 | 219 | 4.8 | 4.8 | 0.00 | 0.00 | 0.00 | 56 | 1010.4 |
| 20260509213823 | 20 | 219 | 4.8 | 8.0 | 0.00 | 0.00 | 0.00 | 55 | 1010.1 |
| 20260509213318 | 20 | 214 | 4.8 | 4.8 | 0.00 | 0.00 | 0.00 | 56 | 1010.1 |
| 20260509212816 | 20 | 176 | 4.8 | 8.0 | 0.00 | 0.00 | 0.00 | 55 | 1010.1 |
| 20260509212313 | 20 | 193 | 8.0 | 9.7 | 0.00 | 0.00 | 0.00 | 53 | 1010.1 |
| 20260509211808 | 20 | 217 | 1.6 | 3.2 | 0.00 | 0.00 | 0.00 | 55 | 1010.1 |
| 20260509211305 | 20 | 256 | 4.8 | 4.8 | 0.00 | 0.00 | 0.00 | 54 | 1010.4 |
| 20260509210801 | 20 | 218 | 4.8 | 8.0 | 0.00 | 0.00 | 0.00 | 53 | 1010.1 |
| 20260509210259 | 20 | 216 | 4.8 | 8.0 | 0.00 | 0.00 | 0.00 | 53 | 1010.1 |
| 20260509205758 | 20 | 206 | 1.6 | 3.2 | 0.00 | 0.00 | 0.00 | 55 | 1010.1 |
| 20260509205253 | 20 | 192 | 4.8 | 4.8 | 0.00 | 0.00 | 0.00 | 52 | 1010.1 |
| 20260509204750 | 20 | 218 | 3.2 | 4.8 | 0.00 | 0.00 | 0.00 | 53 | 1010.1 |
| 20260509204246 | 20 | 219 | 4.8 | 4.8 | 0.00 | 0.00 | 0.00 | 52 | 1009.7 |
| 20260509203742 | 21 | 202 | 8.0 | 9.7 | 0.00 | 0.00 | 0.00 | 51 | 1009.7 |
| 20260509203241 | 21 | 188 | 4.8 | 8.0 | 0.00 | 0.00 | 0.00 | 49 | 1009.7 |
| 20260509202736 | 20 | 202 | 4.8 | 8.0 | 0.00 | 0.00 | 0.00 | 53 | 1009.7 |
| 20260509202232 | 20 | 218 | 6.4 | 9.7 | 0.00 | 0.00 | 0.00 | 54 | 1009.7 |
| 20260509201726 | 20 | 217 | 4.8 | 8.0 | 0.00 | 0.00 | 0.00 | 53 | 1009.7 |
| 20260509201223 | 20 | 209 | 4.8 | 4.8 | 0.00 | 0.00 | 0.00 | 53 | 1009.7 |
| 20260509200720 | 19 | 184 | 6.4 | 9.7 | 0.00 | 0.00 | 0.00 | 54 | 1009.7 |
| 20260509200215 | 20 | 244 | 4.8 | 4.8 | 0.00 | 0.00 | 0.00 | 53 | 1009.7 |
| 20260509195712 | 20 | 192 | 8.0 | 9.7 | 0.00 | 0.00 | 0.00 | 53 | 1009.7 |
| 20260509195207 | 21 | 189 | 4.8 | 8.0 | 0.00 | 0.00 | 0.00 | 51 | 1009.7 |
| 20260509194706 | 21 | 224 | 3.2 | 4.8 | 0.00 | 0.00 | 0.00 | 49 | 1009.7 |
| 20260509194203 | 21 | 217 | 6.4 | 9.7 | 0.00 | 0.00 | 0.00 | 50 | 1010.1 |
| 20260509193700 | 22 | 187 | 4.8 | 8.0 | 0.00 | 0.00 | 0.00 | 53 | 1010.1 |
| 20260509193155 | 21 | 204 | 3.2 | 4.8 | 0.00 | 0.00 | 0.00 | 54 | 1010.1 |
| 20260509192652 | 20 | 190 | 6.4 | 9.7 | 0.00 | 0.00 | 0.00 | 55 | 1010.1 |
| 20260509192147 | 20 | 225 | 4.8 | 8.0 | 0.00 | 0.00 | 0.00 | 56 | 1010.1 |
| 20260509191647 | 20 | 192 | 4.8 | 8.0 | 0.00 | 0.00 | 0.00 | 57 | 1010.1 |
| 20260509191144 | 20 | 213 | 4.8 | 4.8 | 0.00 | 0.00 | 0.00 | 58 | 1010.1 |
| 20260509190640 | 20 | 211 | 4.8 | 4.8 | 0.00 | 0.00 | 0.00 | 57 | 1010.7 |
| 20260509190137 | 20 | 157 | 9.7 | 12.9 | 0.00 | 0.00 | 0.00 | 53 | 1010.1 |
| 20260509185635 | 20 | 212 | 11.3 | 12.9 | 0.00 | 0.00 | 0.00 | 54 | 1010.1 |
| 20260509185131 | 20 | 182 | 9.7 | 14.5 | 0.00 | 0.00 | 0.00 | 54 | 1010.4 |
| 20260509184629 | 20 | 215 | 8.0 | 11.3 | 0.00 | 0.00 | 0.00 | 55 | 1010.4 |
| 20260509184125 | 19 | 181 | 4.8 | 8.0 | 0.00 | 0.00 | 0.00 | 58 | 1010.4 |
| 20260509183622 | 19 | 225 | 8.0 | 11.3 | 0.00 | 0.00 | 0.00 | 56 | 1010.7 |
| 20260509183117 | 20 | 183 | 9.7 | 12.9 | 0.00 | 0.00 | 0.00 | 54 | 1010.4 |
| 20260509182613 | 20 | 215 | 8.0 | 9.7 | 0.00 | 0.00 | 0.00 | 53 | 1010.4 |
| 20260509182110 | 20 | 222 | 3.2 | 3.2 | 0.00 | 0.00 | 0.00 | 53 | 1010.4 |
| 20260509181609 | 21 | 209 | 8.0 | 12.9 | 0.00 | 0.00 | 0.00 | 54 | 1010.4 |
| 20260509181106 | 21 | 300 | 6.4 | 8.0 | 0.00 | 0.00 | 0.00 | 54 | 1010.7 |
| 20260509180602 | 21 | 235 | 3.2 | 3.2 | 0.00 | 0.00 | 0.00 | 54 | 1010.7 |
| 20260509180059 | 20 | 189 | 4.8 | 4.8 | 0.00 | 0.00 | 0.00 | 54 | 1010.7 |
| 20260509175554 | 20 | 218 | 3.2 | 4.8 | 0.00 | 0.00 | 0.00 | 57 | 1011.1 |
| 20260509175052 | 18 | 199 | 6.4 | 11.3 | 0.00 | 0.00 | 0.00 | 56 | 1010.7 |
| 20260509174548 | 19 | 215 | 4.8 | 8.0 | 0.00 | 0.00 | 0.00 | 55 | 1010.7 |
| 20260509174038 | 20 | 178 | 4.8 | 8.0 | 0.00 | 0.00 | 0.00 | 56 | 1011.1 |
| 20260509173538 | 19 | 202 | 6.4 | 8.0 | 0.00 | 0.00 | 0.00 | 56 | 1011.1 |
| 20260509173034 | 20 | 222 | 1.6 | 1.6 | 0.00 | 0.00 | 0.00 | 60 | 1010.7 |
| 20260509172531 | 20 | 216 | 4.8 | 8.0 | 0.00 | 0.00 | 0.00 | 52 | 1010.7 |
| 20260509172027 | 20 | 202 | 6.4 | 9.7 | 0.00 | 0.00 | 0.00 | 53 | 1011.1 |
| 20260509171523 | 20 | 196 | 6.4 | 8.0 | 0.00 | 0.00 | 0.00 | 56 | 1011.1 |
| 20260509171020 | 20 | 312 | 4.8 | 12.9 | 0.00 | 0.00 | 0.00 | 54 | 1011.1 |
| 20260509170515 | 20 | 202 | 9.7 | 11.3 | 0.00 | 0.00 | 0.00 | 58 | 1011.5 |
| 20260509170011 | 20 | 181 | 4.8 | 4.8 | 0.00 | 0.00 | 0.00 | 57 | 1011.5 |
| 20260509165510 | 19 | 227 | 6.4 | 9.7 | 0.00 | 0.00 | 0.00 | 55 | 1011.5 |
| 20260509165006 | 20 | 205 | 12.9 | 16.1 | 0.00 | 0.00 | 0.00 | 58 | 1011.5 |
| 20260509164502 | 19 | 221 | 4.8 | 9.7 | 0.00 | 0.00 | 0.00 | 63 | 1011.1 |
| 20260509163958 | 18 | 199 | 11.3 | 14.5 | 0.00 | 0.00 | 0.00 | 60 | 1011.1 |
| 20260509163456 | 18 | 145 | 8.0 | 9.7 | 0.00 | 0.00 | 0.00 | 62 | 1011.5 |
| 20260509162955 | 18 | 221 | 8.0 | 12.9 | 0.00 | 0.00 | 0.00 | 60 | 1011.5 |
| 20260509162454 | 17 | 184 | 8.0 | 12.9 | 0.00 | 0.00 | 0.00 | 65 | 1011.9 |
| 20260509161949 | 17 | 182 | 4.8 | 11.3 | 0.00 | 0.00 | 0.00 | 65 | 1011.5 |
| 20260509161446 | 17 | 216 | 8.0 | 12.9 | 0.00 | 0.00 | 0.00 | 63 | 1011.5 |
| 20260509160941 | 17 | 156 | 4.8 | 8.0 | 0.00 | 0.00 | 0.00 | 63 | 1011.5 |
| 20260509160437 | 18 | 199 | 8.0 | 9.7 | 0.00 | 0.00 | 0.00 | 62 | 1011.5 |
| 20260509155932 | 17 | 230 | 8.0 | 11.3 | 0.00 | 0.00 | 0.00 | 62 | 1011.5 |
| 20260509155429 | 17 | 194 | 4.8 | 4.8 | 0.00 | 0.00 | 0.00 | 64 | 1011.5 |
| 20260509154926 | 17 | 214 | 6.4 | 9.7 | 0.00 | 0.00 | 0.00 | 63 | 1011.5 |
| 20260509154422 | 17 | 172 | 8.0 | 9.7 | 0.00 | 0.00 | 0.00 | 63 | 1011.5 |
| 20260509153919 | 17 | 233 | 4.8 | 8.0 | 0.00 | 0.00 | 0.00 | 62 | 1011.5 |
| 20260509153416 | 17 | 203 | 8.0 | 12.9 | 0.00 | 0.00 | 0.00 | 61 | 1011.5 |
| 20260509152913 | 18 | 194 | 4.8 | 4.8 | 0.00 | 0.00 | 0.00 | 61 | 1011.5 |
| 20260509152409 | 17 | 246 | 3.2 | 4.8 | 0.00 | 0.00 | 0.00 | 63 | 1011.9 |
| 20260509151906 | 17 | 201 | 6.4 | 8.0 | 0.00 | 0.00 | 0.00 | 63 | 1011.9 |
| 20260509151402 | 17 | 221 | 4.8 | 8.0 | 0.00 | 0.00 | 0.00 | 62 | 1011.9 |
| 20260509150901 | 18 | 215 | 8.0 | 11.3 | 0.00 | 0.00 | 0.00 | 62 | 1011.9 |
| 20260509150358 | 17 | 190 | 6.4 | 9.7 | 0.00 | 0.00 | 0.00 | 64 | 1011.9 |
| 20260509145856 | 17 | 194 | 8.0 | 9.7 | 0.00 | 0.00 | 0.00 | 65 | 1011.9 |
| 20260509145355 | 17 | 206 | 8.0 | 11.3 | 0.00 | 0.00 | 0.00 | 65 | 1011.9 |
| 20260509144852 | 16 | 214 | 6.4 | 9.7 | 0.00 | 0.00 | 0.00 | 66 | 1011.1 |
| 20260509144349 | 16 | 174 | 8.0 | 11.3 | 0.00 | 0.00 | 0.00 | 66 | 1011.9 |
| 20260509143846 | 16 | 223 | 1.6 | 3.2 | 0.00 | 0.00 | 0.00 | 66 | 1011.5 |
| 20260509143344 | 16 | 162 | 9.7 | 12.9 | 0.00 | 0.00 | 0.00 | 65 | 1011.5 |
| 20260509142840 | 16 | 219 | 4.8 | 8.0 | 0.00 | 0.00 | 0.00 | 64 | 1011.5 |
| 20260509142336 | 17 | 199 | 11.3 | 14.5 | 0.00 | 0.00 | 0.00 | 64 | 1011.5 |
| 20260509141832 | 16 | 198 | 6.4 | 8.0 | 0.00 | 0.00 | 0.00 | 67 | 1011.5 |
| 20260509141329 | 16 | 114 | 4.8 | 8.0 | 0.00 | 0.00 | 0.00 | 66 | 1011.5 |
| 20260509140825 | 15 | 147 | 6.4 | 9.7 | 0.00 | 0.00 | 0.00 | 69 | 1011.5 |
| 20260509140323 | 15 | 232 | 6.4 | 9.7 | 0.00 | 0.00 | 0.00 | 67 | 1011.1 |
| 20260509135821 | 15 | 196 | 4.8 | 4.8 | 0.00 | 0.00 | 0.00 | 68 | 1011.5 |
| 20260509135318 | 15 | 199 | 1.6 | 4.8 | 0.00 | 0.00 | 0.00 | 69 | 1011.5 |
| 20260509134815 | 15 | 219 | 3.2 | 4.8 | 0.00 | 0.00 | 0.00 | 69 | 1011.9 |
| 20260509134312 | 15 | 204 | 8.0 | 12.9 | 0.00 | 0.00 | 0.00 | 68 | 1011.9 |
| 20260509133809 | 15 | 208 | 8.0 | 11.3 | 0.00 | 0.00 | 0.00 | 68 | 1011.9 |
| 20260509133306 | 15 | 211 | 6.4 | 8.0 | 0.00 | 0.00 | 0.00 | 68 | 1011.9 |
| 20260509132804 | 15 | 212 | 4.8 | 8.0 | 0.00 | 0.00 | 0.00 | 70 | 1012.2 |
| 20260509132306 | 14 | 215 | 4.8 | 8.0 | 0.00 | 0.00 | 0.00 | 70 | 1012.2 |
| 20260509131759 | 13 | 199 | 4.8 | 8.0 | 0.00 | 0.00 | 0.00 | 69 | 1012.2 |
| 20260509131255 | 13 | 206 | 4.8 | 9.7 | 0.00 | 0.00 | 0.00 | 69 | 1011.9 |
| 20260509130752 | 13 | 202 | 8.0 | 11.3 | 0.00 | 0.00 | 0.00 | 69 | 1012.5 |
| 20260509130248 | 13 | 209 | 4.8 | 8.0 | 0.00 | 0.00 | 0.00 | 70 | 1012.2 |
| 20260509125744 | 13 | 210 | 3.2 | 4.8 | 0.00 | 0.00 | 0.00 | 69 | 1012.2 |
| 20260509125242 | 13 | 233 | 6.4 | 8.0 | 0.00 | 0.00 | 0.00 | 69 | 1012.5 |
| 20260509124738 | 13 | 229 | 8.0 | 9.7 | 0.00 | 0.00 | 0.00 | 68 | 1012.2 |
| 20260509124234 | 13 | 214 | 6.4 | 9.7 | 0.00 | 0.00 | 0.00 | 69 | 1012.5 |
| 20260509123733 | 13 | 221 | 8.0 | 12.9 | 0.00 | 0.00 | 0.00 | 68 | 1012.5 |
| 20260509123230 | 13 | 213 | 4.8 | 8.0 | 0.00 | 0.00 | 0.00 | 69 | 1012.2 |
| 20260509122725 | 13 | 225 | 8.0 | 9.7 | 0.00 | 0.00 | 0.00 | 67 | 1012.5 |
| 20260509122222 | 13 | 182 | 6.4 | 8.0 | 0.00 | 0.00 | 0.00 | 68 | 1012.5 |
| 20260509121719 | 13 | 228 | 6.4 | 9.7 | 0.00 | 0.00 | 0.00 | 68 | 1012.2 |
| 20260509121217 | 13 | 207 | 4.8 | 8.0 | 0.00 | 0.00 | 0.00 | 67 | 1012.5 |
| 20260509120715 | 13 | 239 | 8.0 | 11.3 | 0.00 | 0.00 | 0.00 | 67 | 1012.2 |
| 20260509120212 | 13 | 199 | 12.9 | 17.7 | 0.00 | 0.00 | 0.00 | 67 | 1012.2 |
| 20260509115710 | 12 | 212 | 8.0 | 11.3 | 0.00 | 0.00 | 0.00 | 67 | 1012.2 |
| 20260509115207 | 12 | 165 | 4.8 | 4.8 | 0.00 | 0.00 | 0.00 | 67 | 1012.2 |
| 20260509114705 | 12 | 192 | 9.7 | 12.9 | 0.00 | 0.00 | 0.00 | 67 | 1012.2 |
| 20260509114204 | 12 | 184 | 8.0 | 12.9 | 0.00 | 0.00 | 0.00 | 67 | 1012.2 |
| 20260509113702 | 12 | 213 | 3.2 | 3.2 | 0.00 | 0.00 | 0.00 | 66 | 1012.2 |
| 20260509113159 | 12 | 188 | 4.8 | 4.8 | 0.00 | 0.00 | 0.00 | 66 | 1012.2 |
| 20260509112655 | 12 | 205 | 1.6 | 1.6 | 0.00 | 0.00 | 0.00 | 66 | 1012.2 |
| 20260509112152 | 12 | 221 | 8.0 | 9.7 | 0.00 | 0.00 | 0.00 | 66 | 1012.2 |
| 20260509111649 | 12 | 196 | 3.2 | 3.2 | 0.00 | 0.00 | 0.00 | 66 | 1012.2 |
| 20260509111146 | 12 | 224 | 3.2 | 4.8 | 0.00 | 0.00 | 0.00 | 66 | 1012.2 |
| 20260509110643 | 12 | 209 | 4.8 | 4.8 | 0.00 | 0.00 | 0.00 | 65 | 1011.9 |
| 20260509110140 | 12 | 222 | 3.2 | 3.2 | 0.00 | 0.00 | 0.00 | 65 | 1012.2 |
| 20260509105638 | 12 | 211 | 1.6 | 3.2 | 0.00 | 0.00 | 0.00 | 64 | 1012.2 |
| 20260509105130 | 12 | 207 | 6.4 | 9.7 | 0.00 | 0.00 | 0.00 | 64 | 1011.9 |
| 20260509104627 | 12 | 200 | 1.6 | 3.2 | 0.00 | 0.00 | 0.00 | 64 | 1012.2 |
| 20260509104123 | 12 | 227 | 8.0 | 11.3 | 0.00 | 0.00 | 0.00 | 64 | 1011.9 |
| 20260509103622 | 12 | 195 | 3.2 | 3.2 | 0.00 | 0.00 | 0.00 | 64 | 1011.9 |
| 20260509103119 | 12 | 214 | 6.4 | 8.0 | 0.00 | 0.00 | 0.00 | 63 | 1012.2 |
| 20260509102616 | 12 | 216 | 3.2 | 4.8 | 0.00 | 0.00 | 0.00 | 63 | 1012.2 |
| 20260509102113 | 12 | 205 | 4.8 | 4.8 | 0.00 | 0.00 | 0.00 | 63 | 1012.2 |
| 20260509101609 | 12 | 222 | 9.7 | 11.3 | 0.00 | 0.00 | 0.00 | 62 | 1012.2 |
| 20260509101106 | 12 | 217 | 1.6 | 3.2 | 0.00 | 0.00 | 0.00 | 62 | 1012.2 |
| 20260509100603 | 12 | 218 | 3.2 | 3.2 | 0.00 | 0.00 | 0.00 | 62 | 1012.2 |
| 20260509100101 | 12 | 199 | 1.6 | 3.2 | 0.00 | 0.00 | 0.00 | 62 | 1012.2 |
| 20260509095557 | 12 | 222 | 3.2 | 3.2 | 0.00 | 0.00 | 0.00 | 62 | 1012.2 |
| 20260509095055 | 12 | 222 | 4.8 | 4.8 | 0.00 | 0.00 | 0.00 | 62 | 1012.2 |
| 20260509094550 | 12 | 205 | 8.0 | 8.0 | 0.00 | 0.00 | 0.00 | 62 | 1012.2 |
| 20260509094048 | 12 | 173 | 3.2 | 8.0 | 0.00 | 0.00 | 0.00 | 62 | 1011.9 |
| 20260509093546 | 12 | 207 | 4.8 | 4.8 | 0.00 | 0.00 | 0.00 | 62 | 1012.2 |
| 20260509093043 | 12 | 217 | 3.2 | 3.2 | 0.00 | 0.00 | 0.00 | 62 | 1012.2 |
| 20260509092541 | 12 | 209 | 4.8 | 4.8 | 0.00 | 0.00 | 0.00 | 62 | 1012.2 |
| 20260509092040 | 12 | 207 | 8.0 | 9.7 | 0.00 | 0.00 | 0.00 | 62 | 1012.2 |
| 20260509091537 | 12 | 216 | 3.2 | 3.2 | 0.00 | 0.00 | 0.00 | 61 | 1012.2 |
| 20260509091033 | 12 | 200 | 8.0 | 8.0 | 0.00 | 0.00 | 0.00 | 61 | 1012.5 |
| 20260509090531 | 12 | 217 | 3.2 | 4.8 | 0.00 | 0.00 | 0.00 | 61 | 1012.2 |
| 20260509090028 | 11 | 206 | 4.8 | 4.8 | 0.00 | 0.00 | 0.00 | 62 | 1012.2 |
| 20260509085525 | 12 | 216 | 4.8 | 4.8 | 0.00 | 0.00 | 0.00 | 61 | 1012.2 |
| 20260509085021 | 12 | 217 | 3.2 | 4.8 | 0.00 | 0.00 | 0.00 | 60 | 1012.2 |
| 20260509084518 | 12 | 213 | 8.0 | 11.3 | 0.00 | 0.00 | 0.00 | 60 | 1012.5 |
| 20260509084015 | 12 | 207 | 9.7 | 12.9 | 0.00 | 0.00 | 0.00 | 59 | 1012.2 |
| 20260509083513 | 12 | 213 | 4.8 | 8.0 | 0.00 | 0.00 | 0.00 | 60 | 1012.2 |
| 20260509083009 | 12 | 213 | 1.6 | 3.2 | 0.00 | 0.00 | 0.00 | 59 | 1012.2 |
| 20260509082507 | 11 | 240 | 3.2 | 3.2 | 0.00 | 0.00 | 0.00 | 59 | 1012.5 |
| 20260509082004 | 11 | 197 | 4.8 | 8.0 | 0.00 | 0.00 | 0.00 | 58 | 1012.5 |
| 20260509081501 | 11 | 189 | 3.2 | 3.2 | 0.00 | 0.00 | 0.00 | 58 | 1012.5 |
| 20260509080957 | 12 | 235 | 4.8 | 4.8 | 0.00 | 0.00 | 0.00 | 57 | 1012.2 |
| 20260509080456 | 12 | 214 | 1.6 | 3.2 | 0.00 | 0.00 | 0.00 | 56 | 1012.5 |
| 20260509075954 | 12 | 225 | 6.4 | 9.7 | 0.00 | 0.00 | 0.00 | 56 | 1012.5 |
| 20260509075450 | 12 | 221 | 8.0 | 14.5 | 0.00 | 0.00 | 0.00 | 56 | 1012.5 |
| 20260509074948 | 12 | 210 | 3.2 | 4.8 | 0.00 | 0.00 | 0.00 | 55 | 1012.5 |
| 20260509074446 | 12 | 223 | 8.0 | 9.7 | 0.00 | 0.00 | 0.00 | 55 | 1012.5 |
| 20260509073942 | 12 | 196 | 4.8 | 4.8 | 0.00 | 0.00 | 0.00 | 55 | 1012.9 |
| 20260509073438 | 11 | 210 | 3.2 | 4.8 | 0.00 | 0.00 | 0.00 | 56 | 1012.5 |
| 20260509072935 | 12 | 220 | 1.6 | 3.2 | 0.00 | 0.00 | 0.00 | 55 | 1012.9 |
| 20260509072432 | 12 | 207 | 8.0 | 12.9 | 0.00 | 0.00 | 0.00 | 55 | 1012.9 |
| 20260509071928 | 12 | 217 | 6.4 | 9.7 | 0.00 | 0.00 | 0.00 | 54 | 1012.9 |
| 20260509071425 | 11 | 243 | 6.4 | 9.7 | 0.00 | 0.00 | 0.00 | 55 | 1012.9 |
| 20260509070923 | 12 | 245 | 6.4 | 9.7 | 0.00 | 0.00 | 0.00 | 55 | 1012.9 |
| 20260509070420 | 12 | 218 | 3.2 | 4.8 | 0.00 | 0.00 | 0.00 | 55 | 1012.9 |
| 20260509065914 | 12 | 241 | 6.4 | 8.0 | 0.00 | 0.00 | 0.00 | 54 | 1012.9 |
| 20260509065411 | 12 | 237 | 4.8 | 4.8 | 0.00 | 0.00 | 0.00 | 54 | 1012.9 |
| 20260509064907 | 12 | 165 | 3.2 | 3.2 | 0.00 | 0.00 | 0.00 | 54 | 1012.9 |